DW9186 Weather Reports


time (UTC)temp
F
wind
direction
speed
knots
gust
knots
rain 1hr
in
rain 24hr
in
rain mn
in
humidity
%
barometer
mb
20260505201102 75 108 1.7 2.6 0.00 0.00 0.00 50 1010.6
20260505200602 75 180 0.0 1.7 0.00 0.00 0.00 50 1010.7
20260505195602 75 130 0.9 2.6 0.00 0.00 0.00 49 1010.6
20260505195102 75 148 0.9 2.6 0.00 0.00 0.00 50 1010.6
20260505194602 75 149 0.9 2.6 0.00 0.00 0.00 49 1010.4
20260505194102 75 130 0.9 1.7 0.00 0.00 0.00 49 1010.6
20260505193602 75 145 0.0 0.9 0.00 0.00 0.00 49 1010.8
20260505192602 76 98 0.9 2.6 0.00 0.00 0.00 46 1011.1
20260505192102 76 255 0.0 2.6 0.00 0.00 0.00 44 1011.4
20260505191603 76 262 2.6 7.0 0.00 0.00 0.00 43 1012.0
20260505191102 76 272 0.9 2.6 0.00 0.00 0.00 44 1012.1
20260505190103 77 263 2.6 5.2 0.00 0.00 0.00 43 1012.3
20260505185604 77 133 0.9 2.6 0.00 0.00 0.00 46 1012.3
20260505185103 78 266 3.5 6.1 0.00 0.00 0.00 41 1012.3
20260505184602 79 257 1.7 5.2 0.00 0.00 0.00 42 1012.3
20260505184102 79 269 1.7 5.2 0.00 0.00 0.00 43 1012.5
20260505183603 79 235 0.9 2.6 0.00 0.00 0.00 44 1012.5
20260505183102 78 135 0.9 2.6 0.00 0.00 0.00 43 1012.4
20260505182603 78 249 0.9 4.3 0.00 0.00 0.00 43 1012.5
20260505182103 78 79 0.9 2.6 0.00 0.00 0.00 44 1012.6
20260505181603 78 255 0.9 2.6 0.00 0.00 0.00 43 1012.7
20260505181103 78 257 1.7 2.6 0.00 0.00 0.00 41 1012.6
20260505175602 77 262 1.7 6.1 0.00 0.00 0.00 41 1012.5
20260505175102 77 253 1.7 5.2 0.00 0.00 0.00 42 1012.7
20260505174602 77 273 2.6 6.1 0.00 0.00 0.00 40 1012.6
20260505174102 77 253 1.7 5.2 0.00 0.00 0.00 41 1012.7
20260505173602 77 166 0.9 2.6 0.00 0.00 0.00 42 1012.8
20260505172603 76 272 1.7 4.3 0.00 0.00 0.00 42 1012.9
20260505172102 76 61 1.7 7.8 0.00 0.00 0.00 43 1012.9
20260505170603 76 255 0.9 2.6 0.00 0.00 0.00 43 1013.2
20260505165602 78 264 1.7 2.6 0.00 0.00 0.00 41 1013.1
20260505165103 78 115 0.9 2.6 0.00 0.00 0.00 41 1013.2
20260505164602 77 40 0.9 4.3 0.00 0.00 0.00 43 1013.1
20260505163602 78 276 2.6 2.6 0.00 0.00 0.00 43 1013.2
20260505162102 78 245 1.7 6.1 0.00 0.00 0.00 42 1013.3
20260505161602 77 118 0.9 2.6 0.00 0.00 0.00 46 1013.2
20260505161103 77 257 1.7 2.6 0.00 0.00 0.00 44 1013.1
20260505160603 77 257 2.6 6.1 0.00 0.00 0.00 44 1013.1
20260505153103 75 180 0.9 2.6 0.00 0.00 0.00 52 1013.1
20260505152603 74 71 0.9 2.6 0.00 0.00 0.00 53 1013.1
20260505152102 74 197 0.9 1.7 0.00 0.00 0.00 53 1013.1
20260505151103 74 107 2.6 6.1 0.00 0.00 0.00 55 1013.2
20260505150603 73 262 0.9 2.6 0.00 0.00 0.00 56 1013.4
20260505140603 68 174 0.0 1.7 0.00 0.00 0.00 65 1013.4
20260505130104 62 107 0.0 1.7 0.00 0.00 0.00 73 1013.5
20260505124603 60 77 0.9 2.6 0.00 0.00 0.00 76 1013.2
20260505124103 60 79 0.9 2.6 0.00 0.00 0.00 79 1013.3
20260505123603 59 79 1.7 4.3 0.00 0.00 0.00 81 1013.3
20260505123103 58 191 0.9 2.6 0.00 0.00 0.00 82 1013.3
20260505121103 57 200 0.0 0.0 0.00 0.00 0.00 84 1013.3
20260505115603 57 200 0.0 0.0 0.00 0.00 0.00 83 1013.0
20260505115103 57 200 0.0 0.9 0.00 0.00 0.00 83 1012.9
20260505114103 57 200 0.0 0.0 0.00 0.00 0.00 81 1012.5
20260505113603 57 200 0.0 0.0 0.00 0.00 0.00 81 1012.4
20260505113103 57 200 0.0 0.0 0.00 0.00 0.00 81 1012.3
20260505112103 57 200 0.0 0.0 0.00 0.00 0.00 81 1012.3
20260505111603 57 200 0.0 0.9 0.00 0.00 0.00 80 1012.3
20260505111103 57 200 0.0 0.9 0.00 0.00 0.00 80 1012.3
20260505110603 57 200 0.0 0.0 0.00 0.00 0.00 81 1012.2
20260505101603 59 200 0.0 0.0 0.00 0.00 0.00 74 1011.6
20260505101103 59 200 0.0 0.0 0.00 0.00 0.00 73 1011.5
20260505100603 59 200 0.0 0.0 0.00 0.00 0.00 73 1011.6
20260505100104 59 200 0.0 0.0 0.00 0.00 0.00 73 1011.6
20260505095103 59 200 0.0 0.9 0.00 0.00 0.00 72 1011.4
20260505093604 59 200 0.0 0.9 0.00 0.00 0.00 72 1011.3
20260505093103 59 200 0.0 0.9 0.00 0.00 0.00 72 1011.3
20260505092603 59 200 0.0 0.9 0.00 0.00 0.00 72 1011.4
20260505092103 59 200 0.0 0.0 0.00 0.00 0.00 72 1011.4
20260505091603 59 200 0.0 0.9 0.00 0.00 0.00 72 1011.4
20260505091103 59 200 0.0 0.0 0.00 0.00 0.00 72 1011.5
20260505090603 58 200 0.0 0.9 0.00 0.00 0.00 72 1011.5
20260505085103 58 200 0.0 0.0 0.00 0.00 0.00 72 1011.6
20260505084603 58 200 0.0 0.0 0.00 0.00 0.00 72 1011.6
20260505083603 58 200 0.0 0.0 0.00 0.00 0.00 72 1011.5
20260505082603 58 200 0.0 0.0 0.00 0.00 0.00 72 1011.4
20260505082103 58 200 0.0 0.0 0.00 0.00 0.00 71 1011.5
20260505081603 58 200 0.0 0.0 0.00 0.00 0.00 72 1011.6
20260505081103 58 200 0.0 0.0 0.00 0.00 0.00 73 1011.6
20260505080603 59 200 0.0 0.0 0.00 0.00 0.00 73 1011.7
20260505080103 59 200 0.0 0.0 0.00 0.00 0.00 73 1011.8
20260505075602 59 200 0.0 0.0 0.00 0.00 0.00 73 1011.9
20260505075103 59 200 0.0 0.0 0.00 0.00 0.00 71 1011.9
20260505074603 59 200 0.0 0.0 0.00 0.00 0.00 72 1012.0
20260505074103 59 200 0.0 0.0 0.00 0.00 0.00 72 1012.1
20260505073603 60 200 0.0 0.0 0.00 0.00 0.00 71 1012.1
20260505073103 60 200 0.0 0.9 0.00 0.00 0.00 71 1012.1
20260505072603 60 200 0.0 0.9 0.00 0.00 0.00 69 1012.1
20260505072103 60 200 0.0 0.0 0.00 0.00 0.00 68 1012.0
20260505071603 60 200 0.0 0.0 0.00 0.00 0.00 67 1011.9
20260505071103 61 200 0.0 0.0 0.00 0.00 0.00 67 1011.9
20260505070603 61 200 0.0 0.0 0.00 0.00 0.00 67 1012.0
20260505065604 61 200 0.0 0.0 0.00 0.00 0.00 65 1012.0
20260505065103 61 200 0.0 0.0 0.00 0.00 0.00 65 1012.1
20260505064103 62 200 0.0 0.0 0.00 0.00 0.00 64 1012.1
20260505063603 62 200 0.0 0.0 0.00 0.00 0.00 65 1012.1
20260505063103 62 200 0.0 0.9 0.00 0.00 0.00 63 1012.2
20260505062603 62 200 0.0 0.9 0.00 0.00 0.00 63 1012.2
20260505062103 62 200 0.0 0.9 0.00 0.00 0.00 63 1012.2
20260505061603 62 200 0.0 0.0 0.00 0.00 0.00 64 1012.3
20260505061104 63 200 0.0 0.9 0.00 0.00 0.00 64 1012.3
20260505060604 63 200 0.0 0.0 0.00 0.00 0.00 63 1012.2
20260505055604 63 200 0.0 0.9 0.00 0.00 0.00 63 1012.3
20260505055103 63 200 0.0 0.9 0.00 0.00 0.00 63 1012.3
20260505054103 62 200 0.0 0.9 0.00 0.00 0.00 64 1012.3
20260505053603 62 200 0.9 0.9 0.00 0.00 0.00 64 1012.4
20260505053103 62 200 0.9 0.9 0.00 0.00 0.00 65 1012.4
20260505052603 62 200 0.0 0.0 0.00 0.00 0.00 65 1012.4
20260505052103 62 200 0.0 0.0 0.00 0.00 0.00 65 1012.4
20260505051604 62 200 0.0 0.9 0.00 0.00 0.00 66 1012.5
20260505051105 62 200 0.0 0.9 0.00 0.00 0.00 66 1012.5
20260505050603 62 200 0.0 0.9 0.00 0.00 0.00 66 1012.5
20260505050104 62 200 0.0 1.7 0.00 0.00 0.00 66 1012.6
20260505040603 60 200 0.0 0.0 0.00 0.00 0.00 75 1012.4
20260505040104 60 200 0.0 0.0 0.00 0.00 0.00 75 1012.4
20260505035604 60 200 0.0 0.0 0.00 0.00 0.00 75 1012.4
20260505034604 60 200 0.0 0.0 0.00 0.00 0.00 74 1012.4
20260505034103 61 200 0.0 0.0 0.00 0.00 0.00 74 1012.5
20260505033603 61 200 0.0 0.0 0.00 0.00 0.00 73 1012.5
20260505033103 61 200 0.0 0.0 0.00 0.00 0.00 73 1012.5
20260505032603 61 200 0.0 0.0 0.00 0.00 0.00 72 1012.5
20260505031603 62 200 0.0 0.0 0.00 0.00 0.00 71 1012.5
20260505031104 62 200 0.0 0.0 0.00 0.00 0.00 71 1012.5
20260505030103 62 200 0.0 0.0 0.00 0.00 0.00 69 1012.5
20260505025603 62 200 0.0 0.0 0.00 0.00 0.00 69 1012.5
20260505025104 62 200 0.0 0.0 0.00 0.00 0.00 69 1012.5
20260505024603 63 200 0.0 0.0 0.00 0.00 0.00 69 1012.5
20260505024103 63 200 0.0 0.0 0.00 0.00 0.00 67 1012.4
20260505023603 63 200 0.0 0.0 0.00 0.00 0.00 67 1012.4
20260505023103 63 200 0.0 0.0 0.00 0.00 0.00 66 1012.4
20260505022603 64 200 0.0 0.0 0.00 0.00 0.00 66 1012.4
20260505022103 64 200 0.0 0.0 0.00 0.00 0.00 65 1012.4
20260505021604 64 200 0.0 0.0 0.00 0.00 0.00 65 1012.3
20260505021103 64 200 0.0 0.0 0.00 0.00 0.00 64 1012.3
20260505020603 65 200 0.0 0.0 0.00 0.00 0.00 63 1012.2
20260505015603 66 200 0.0 0.0 0.00 0.00 0.00 62 1012.1
20260505015104 66 200 0.0 0.9 0.00 0.00 0.00 61 1012.1
20260505014603 66 200 0.0 0.0 0.00 0.00 0.00 60 1012.0
20260505014103 67 200 0.0 0.9 0.00 0.00 0.00 59 1012.0
20260505013603 67 200 0.0 0.9 0.00 0.00 0.00 58 1012.0
20260505013104 68 200 0.0 0.0 0.00 0.00 0.00 57 1012.0
20260505011603 69 200 0.0 0.0 0.00 0.00 0.00 53 1012.0
20260505011103 70 200 0.0 0.0 0.00 0.00 0.00 52 1012.0
20260505010603 70 200 0.0 0.0 0.00 0.00 0.00 51 1011.9
20260505010104 71 200 0.0 0.0 0.00 0.00 0.00 51 1011.9
20260505005603 71 200 0.0 0.0 0.00 0.00 0.00 50 1011.8
20260505005104 72 200 0.0 0.0 0.00 0.00 0.00 49 1011.8
20260505003603 73 200 0.0 0.9 0.00 0.00 0.00 45 1011.6
20260505003104 73 200 0.0 0.9 0.00 0.00 0.00 45 1011.7
20260505002603 74 200 0.0 0.9 0.00 0.00 0.00 45 1011.6
20260505002103 74 200 0.0 1.7 0.00 0.00 0.00 44 1011.6
20260505001103 74 200 0.0 0.9 0.00 0.00 0.00 44 1011.5
20260505000103 75 200 0.0 1.7 0.00 0.00 0.00 42 1011.5
20260504235604 75 217 0.0 1.7 0.00 0.00 0.00 42 1011.5
20260504234604 75 213 0.9 1.7 0.00 0.00 0.00 40 1011.5
20260504234103 76 116 1.7 4.3 0.00 0.00 0.00 40 1011.5
20260504233603 76 265 0.9 2.6 0.00 0.00 0.00 40 1011.5
20260504233103 76 254 0.9 2.6 0.00 0.00 0.00 40 1011.5
20260504232603 76 274 1.7 6.1 0.00 0.00 0.00 40 1011.6
20260504232103 77 200 0.9 1.7 0.00 0.00 0.00 41 1011.6
20260504231604 77 242 0.0 2.6 0.00 0.00 0.00 41 1011.6
20260504231104 77 192 0.9 4.3 0.00 0.00 0.00 41 1011.6
20260504230603 77 265 0.9 2.6 0.00 0.00 0.00 41 1011.5
20260504225103 77 259 0.9 2.6 0.00 0.00 0.00 41 1011.6
20260504224603 77 165 0.9 2.6 0.00 0.00 0.00 41 1011.6
20260504224103 78 285 1.7 2.6 0.00 0.00 0.00 41 1011.7
20260504223104 78 345 1.7 2.6 0.00 0.00 0.00 42 1011.8
20260504222103 78 269 1.7 5.2 0.00 0.00 0.00 38 1011.9
20260504221603 78 261 0.9 5.2 0.00 0.00 0.00 38 1012.0
20260504221103 79 201 0.9 2.6 0.00 0.00 0.00 38 1011.9
20260504220604 79 278 1.7 2.6 0.00 0.00 0.00 38 1012.0
20260504220104 79 118 1.7 2.6 0.00 0.00 0.00 41 1011.9
20260504215103 80 246 0.9 2.6 0.00 0.00 0.00 40 1011.9
20260504214603 80 311 0.0 2.6 0.00 0.00 0.00 39 1011.9
20260504214104 81 268 0.9 5.2 0.00 0.00 0.00 38 1011.9
20260504213603 81 266 0.9 2.6 0.00 0.00 0.00 37 1011.9
20260504213103 81 269 1.7 2.6 0.00 0.00 0.00 38 1011.9
20260504212603 81 77 0.9 2.6 0.00 0.00 0.00 39 1011.9
20260504212104 81 171 0.9 7.0 0.00 0.00 0.00 38 1011.9
20260504211604 81 241 0.9 2.6 0.00 0.00 0.00 39 1011.9
20260504210603 81 272 1.7 5.2 0.00 0.00 0.00 37 1012.0
20260504205602 82 306 0.9 2.6 0.00 0.00 0.00 37 1012.1
20260504205102 82 203 0.9 2.6 0.00 0.00 0.00 36 1012.1
20260504204602 82 85 1.7 2.6 0.00 0.00 0.00 36 1012.2
20260504204103 81 217 0.9 2.6 0.00 0.00 0.00 38 1012.3
20260504203602 81 214 0.9 1.7 0.00 0.00 0.00 40 1012.2
20260504203103 81 100 1.7 6.1 0.00 0.00 0.00 40 1012.3
20260504202102 81 271 2.6 5.2 0.00 0.00 0.00 38 1012.5
20260504201602 82 48 0.9 2.6 0.00 0.00 0.00 40 1012.5